Portage, MI

3:29 AM EDT on September 28, 2016 (GMT -0400)
Kalamazoo-Battle Creek International

Weather History for KAZO - May, 2012

Change the Weather History Date:

Monday, May 21, 2012

  Actual Average Record
Temperature  
Mean Temperature 60 °F 60 °F  
Max Temperature 67 °F 71 °F 93 °F (1977)
Min Temperature 53 °F 49 °F 33 °F (1954)
Degree Days  
Heating Degree Days 5 6  
Month to date heating degree days 176  
Since 1 July heating degree days 6319  
Cooling Degree Days 0 2  
Month to date cooling degree days 16  
Year to date cooling degree days 20  
Growing Degree Days 12 (Base 50)    
Moisture  
Dew Point 57 °F    
Average Humidity 84    
Maximum Humidity 94    
Minimum Humidity 68    
Precipitation  
Precipitation 0.29 in 0.13 in 1.36 in (1959)
Month to date precipitation 0.77 2.67  
Year to date precipitation 11.24  
Sea Level Pressure  
Sea Level Pressure 30.05 in    
Wind  
Wind Speed 8 mph (WNW)    
Max Wind Speed 15 mph    
Max Gust Speed 20 mph    
Visibility 9 miles    
Events Rain , Thunderstorm    
T = Trace of Precipitation, MM = Missing Value Source: NWS Daily Summary

Daily Weather History Graph

Daily Weather History Graph

Search for Another Location

Airport or City:

Trip Planner

Search our weather history database for the weather conditions in past years. The results will help you decide how hot, cold, wet, or windy it might be!

Date:

Astronomy

May. 21, 2012 Rise Set
Actual Time 6:15 AM EDT 9:03 PM EDT
Civil Twilight 5:42 AM EDT 9:35 PM EDT
Nautical Twilight 5:01 AM EDT 10:17 PM EDT
Astronomical Twilight 4:13 AM EDT 11:05 PM EDT
Moon 6:37 AM EDT (5/21) 9:53 PM EDT (5/21)
Length of Visible Light 15h 53m
Length of Day
14h 47m
New Moon, 0% of the Moon is Illuminated
May 21
New Moon
May 28
First Quarter
Jun 4
Full
Jun 11
Last Quarter
Jun 19
New

Hourly Weather History & Observations

Time (EDT) Temp. Dew Point Humidity Pressure Visibility Wind Dir Wind Speed Gust Speed Precip Events Conditions
12:11 AM 69.8 °F 60.8 °F 73% 30.03 in 5.0 mi West 9.2 mph - 0.04 in Rain , Thunderstorm Rain
12:53 AM 68.0 °F 61.0 °F 78% 30.02 in 10.0 mi SSW 8.1 mph - 0.04 in Rain Light Rain
1:04 AM 66.2 °F 62.6 °F 88% 30.05 in 3.0 mi SSW 8.1 mph - 0.06 in Rain , Thunderstorm Heavy Rain
1:09 AM 66.2 °F 62.6 °F 88% 30.06 in 1.8 mi SW 9.2 mph - 0.16 in Rain , Thunderstorm Heavy Rain
1:19 AM 66.2 °F 62.6 °F 88% 30.06 in 2.0 mi SSW 3.5 mph - 0.23 in Rain Light Rain
1:27 AM 66.2 °F 62.6 °F 88% 30.06 in 4.0 mi WSW 8.1 mph - 0.25 in Rain Rain
1:34 AM 64.4 °F 60.8 °F 88% 30.05 in 5.0 mi West 9.2 mph - 0.26 in Rain , Thunderstorm Light Rain
1:53 AM 64.9 °F 61.0 °F 87% 30.06 in 5.0 mi WSW 8.1 mph - 0.28 in Rain Light Rain
2:02 AM 64.4 °F 60.8 °F 88% 30.07 in 10.0 mi West 5.8 mph - 0.00 in Rain , Thunderstorm Light Rain
2:29 AM 64.4 °F 60.8 °F 88% 30.06 in 10.0 mi NNW 3.5 mph - 0.01 in Rain Light Rain
2:41 AM 64.4 °F 60.8 °F 88% 30.06 in 10.0 mi NNW 5.8 mph - 0.01 in Rain , Thunderstorm Light Rain
2:53 AM 64.0 °F 60.1 °F 87% 30.04 in 10.0 mi WNW 3.5 mph - 0.01 in Rain Light Rain
3:51 AM 64.4 °F 60.8 °F 88% 30.03 in 10.0 mi NW 8.1 mph - 0.00 in   Overcast
3:53 AM 63.0 °F 61.0 °F 93% 30.01 in 10.0 mi WNW 8.1 mph - 0.01 in   Overcast
4:05 AM 62.6 °F 60.8 °F 94% 30.02 in 10.0 mi NW 6.9 mph - N/A   Mostly Cloudy
4:29 AM 62.6 °F 60.8 °F 94% 30.02 in 10.0 mi North 4.6 mph - N/A   Mostly Cloudy
4:53 AM 62.1 °F 60.1 °F 93% 30.01 in 10.0 mi Calm Calm - N/A   Mostly Cloudy
5:53 AM 62.1 °F 60.1 °F 93% 30.01 in 10.0 mi WNW 5.8 mph - 0.00 in Rain Light Rain
5:57 AM 62.6 °F 60.8 °F 94% 30.02 in 10.0 mi WNW 6.9 mph - 0.00 in   Mostly Cloudy
6:06 AM 62.6 °F 60.8 °F 94% 30.02 in 10.0 mi WNW 8.1 mph - 0.00 in   Overcast
6:53 AM 60.1 °F 57.9 °F 93% 30.02 in 8.0 mi NW 11.5 mph - 0.00 in   Overcast
7:34 AM 59.0 °F 55.4 °F 88% 30.05 in 10.0 mi NNW 11.5 mph - N/A   Overcast
7:53 AM 59.0 °F 54.0 °F 83% 30.04 in 10.0 mi NNW 10.4 mph - N/A   Overcast
8:53 AM 57.9 °F 54.0 °F 87% 30.07 in 10.0 mi NW 9.2 mph - N/A   Overcast
9:53 AM 59.0 °F 55.0 °F 87% 30.08 in 9.0 mi NNW 10.4 mph - N/A   Overcast
10:16 AM 59.0 °F 55.4 °F 88% 30.10 in 8.0 mi WNW 6.9 mph - N/A   Overcast
10:53 AM 59.0 °F 55.0 °F 87% 30.09 in 8.0 mi NW 8.1 mph - N/A   Overcast
11:40 AM 57.2 °F 55.4 °F 94% 30.10 in 8.0 mi WNW 9.2 mph - N/A   Overcast
11:53 AM 59.0 °F 55.0 °F 87% 30.09 in 9.0 mi WNW 9.2 mph - N/A   Overcast
12:24 PM 60.8 °F 53.6 °F 77% 30.09 in 10.0 mi WNW 5.8 mph - N/A   Overcast
12:53 PM 64.0 °F 55.0 °F 73% 30.09 in 10.0 mi WNW 6.9 mph - N/A   Overcast
1:53 PM 63.0 °F 54.0 °F 72% 30.08 in 10.0 mi WNW 12.7 mph - N/A   Overcast
2:53 PM 61.0 °F 53.1 °F 75% 30.08 in 10.0 mi WNW 11.5 mph - N/A   Overcast
3:53 PM 61.0 °F 52.0 °F 72% 30.08 in 10.0 mi NNW 12.7 mph - N/A   Overcast
4:53 PM 60.1 °F 52.0 °F 75% 30.07 in 10.0 mi NNW 9.2 mph - N/A   Overcast
5:53 PM 60.1 °F 52.0 °F 75% 30.06 in 10.0 mi North 9.2 mph - N/A   Overcast
6:53 PM 61.0 °F 52.0 °F 72% 30.06 in 10.0 mi North 10.4 mph - N/A   Overcast
7:30 PM 62.6 °F 51.8 °F 68% 30.05 in 10.0 mi NNW 8.1 mph - N/A   Overcast
7:53 PM 62.1 °F 52.0 °F 70% 30.05 in 10.0 mi NNW 8.1 mph - N/A   Mostly Cloudy
8:53 PM 59.0 °F 52.0 °F 78% 30.05 in 10.0 mi West 4.6 mph - N/A   Scattered Clouds
9:53 PM 57.0 °F 51.1 °F 81% 30.06 in 10.0 mi WNW 5.8 mph - N/A   Clear
10:53 PM 54.0 °F 48.9 °F 83% 30.07 in 10.0 mi NNW 5.8 mph - N/A   Clear
11:53 PM 53.6 °F 48.2 °F 82% 30.07 in 10.0 mi North 8.1 mph - N/A   Clear